Weather History for Lawrence, MA

Change the Weather History Date:

Thursday, June 5, 2014

  Actual Average Record
Temperature  
Mean Temperature 58 °F -  
Max Temperature 62 °F 73 °F 95 °F (1930)
Min Temperature 53 °F 52 °F 43 °F (1997)
Degree Days  
Heating Degree Days 8    
Growing Degree Days 8 (Base 50)    
Moisture  
Dew Point 54 °F    
Average Humidity 90    
Maximum Humidity 100    
Minimum Humidity 82    
Precipitation  
Precipitation 0.38 in - - ()
Sea Level Pressure  
Sea Level Pressure 29.74 in    
Wind  
Wind Speed 4 mph (NE)    
Max Wind Speed 13 mph    
Max Gust Speed -    
Visibility 4 miles    
Events Fog , Rain    
Averages and records for this station are not official NWS values.
T = Trace of Precipitation, MM = Missing Value Source: NWS Daily Summary

Daily Weather History Graph

Daily Weather History Graph

Search for Another Location

Airport:

Trip Planner

Search our weather history database for the weather conditions in past years. The results will help you decide how hot, cold, wet, or windy it might be!

Date:

Astronomy

Jun. 05, 2014 Rise Set
Actual Time 5:07 AM EDT 8:18 PM EDT
Civil Twilight 4:32 AM EDT 8:53 PM EDT
Nautical Twilight 3:48 AM EDT 9:38 PM EDT
Astronomical Twilight 2:54 AM EDT 10:31 PM EDT
Moon 12:28 PM EDT (6/5) 12:38 AM EDT (6/5)
Length of Visible Light 16h 20m
Length of Day
15h 11m
Waxing Crescent, 48% of the Moon is Illuminated
Jun 5
Waxing Crescent
Jun 5
First Quarter
Jun 13
Full
Jun 19
Last Quarter
Jun 27
New

Hourly Weather History & Observations

Time (EDT) Temp. Dew Point Humidity Pressure Visibility Wind Dir Wind Speed Gust Speed Precip Events Conditions
12:54 AM 55.9 °F 53.1 °F 90% 29.81 in 4.0 mi NE 4.6 mph - N/A   Overcast
1:11 AM 55.9 °F 53.1 °F 90% 29.80 in 4.0 mi East 3.5 mph - N/A   Overcast
1:54 AM 55.9 °F 53.1 °F 90% 29.80 in 2.5 mi NNE 3.5 mph - N/A   Overcast
2:01 AM 55.9 °F 53.1 °F 90% 29.80 in 3.0 mi North 3.5 mph - N/A   Overcast
2:23 AM 55.9 °F 53.1 °F 90% 29.79 in 2.5 mi Calm Calm - N/A   Overcast
2:41 AM 55.9 °F 53.1 °F 90% 29.79 in 1.8 mi Calm Calm - N/A   Overcast
2:51 AM 55.4 °F 53.6 °F 94% 29.79 in 2.0 mi Calm Calm - N/A   Overcast
2:54 AM 55.9 °F 54.0 °F 93% 29.79 in 2.5 mi Calm Calm - N/A   Overcast
3:15 AM 55.9 °F 53.1 °F 90% 29.78 in 4.0 mi ENE 4.6 mph - N/A   Overcast
3:54 AM 55.9 °F 53.1 °F 90% 29.76 in 7.0 mi Calm Calm - N/A   Overcast
4:54 AM 55.9 °F 54.0 °F 93% 29.76 in 2.5 mi NNE 3.5 mph - N/A   Overcast
5:09 AM 55.9 °F 54.0 °F 93% 29.76 in 3.0 mi NNE 3.5 mph - N/A   Overcast
5:19 AM 55.9 °F 54.0 °F 93% 29.76 in 2.5 mi NNE 4.6 mph - N/A   Overcast
5:30 AM 55.9 °F 54.0 °F 93% 29.76 in 1.2 mi NNE 5.8 mph - N/A   Overcast
5:54 AM 55.9 °F 54.0 °F 93% 29.76 in 1.0 mi ENE 3.5 mph - N/A   Overcast
6:17 AM 55.9 °F 54.0 °F 93% 29.76 in 2.5 mi NE 3.5 mph - N/A   Overcast
6:32 AM 57.0 °F 54.0 °F 89% 29.77 in 4.0 mi ENE 4.6 mph - N/A   Overcast
6:54 AM 57.0 °F 54.0 °F 89% 29.78 in 2.5 mi NNE 5.8 mph - N/A   Overcast
7:06 AM 57.0 °F 54.0 °F 89% 29.78 in 3.0 mi NNE 4.6 mph - N/A   Overcast
7:13 AM 57.0 °F 54.0 °F 89% 29.77 in 2.0 mi NNE 5.8 mph - N/A   Overcast
7:20 AM 57.0 °F 54.0 °F 89% 29.77 in 1.8 mi NE 5.8 mph - N/A   Overcast
7:54 AM 57.0 °F 55.0 °F 93% 29.78 in 0.8 mi Calm Calm - N/A   Overcast
8:14 AM 57.0 °F 55.0 °F 93% 29.78 in 0.5 mi Calm Calm - 0.00 in Fog , Rain Light Rain
8:23 AM 57.0 °F 55.0 °F 93% 29.77 in 1.0 mi East 3.5 mph - 0.00 in Rain Light Rain
8:26 AM 57.0 °F 55.0 °F 93% 29.77 in 0.5 mi East 3.5 mph - 0.00 in Fog , Rain Light Rain
8:46 AM 57.0 °F 55.0 °F 93% 29.77 in 0.8 mi Calm Calm - 0.01 in Rain Light Rain
8:54 AM 57.0 °F 55.0 °F 93% 29.77 in 1.8 mi NNE 4.6 mph - 0.02 in Rain Light Rain
9:06 AM 57.0 °F 55.0 °F 93% 29.77 in 2.5 mi NNE 4.6 mph - 0.01 in Rain Light Rain
9:14 AM 57.9 °F 55.0 °F 90% 29.76 in 3.0 mi NNE 6.9 mph - 0.02 in Rain Light Rain
9:54 AM 57.9 °F 55.0 °F 90% 29.76 in 5.0 mi NE 5.8 mph - 0.04 in Rain Light Rain
10:54 AM 59.0 °F 55.9 °F 90% 29.77 in 4.0 mi ENE 4.6 mph - 0.03 in Rain Light Rain
11:14 AM 59.0 °F 55.9 °F 90% 29.76 in 5.0 mi ENE 5.8 mph - 0.02 in Rain Light Rain
11:54 AM 60.1 °F 55.9 °F 86% 29.73 in 5.0 mi NE 9.2 mph - 0.06 in Rain Light Rain
12:54 PM 60.1 °F 55.9 °F 86% 29.72 in 4.0 mi ENE 8.1 mph - 0.06 in Rain Light Rain
1:54 PM 60.1 °F 55.9 °F 86% 29.71 in 6.0 mi NE 10.4 mph - 0.05 in Rain Light Rain
2:17 PM 60.1 °F 57.0 °F 90% 29.69 in 9.0 mi NE 12.7 mph - 0.01 in Rain Light Rain
2:45 PM 59.0 °F 55.9 °F 90% 29.70 in 8.0 mi NE 8.1 mph - 0.01 in Rain Light Rain
2:54 PM 59.0 °F 55.9 °F 90% 29.70 in 6.0 mi NE 8.1 mph - 0.02 in Rain Light Rain
3:24 PM 59.0 °F 55.9 °F 90% 29.69 in 3.0 mi NE 9.2 mph - 0.05 in Rain Rain
3:33 PM 60.1 °F 57.0 °F 90% 29.69 in 2.5 mi NE 9.2 mph - 0.07 in Rain Rain
3:42 PM 60.1 °F 55.9 °F 86% 29.69 in 4.0 mi ENE 8.1 mph - 0.08 in Rain Light Rain
3:49 PM 60.8 °F 55.4 °F 82% 29.69 in 7.0 mi NE 8.1 mph - 0.09 in Rain Light Rain
3:54 PM 60.1 °F 55.9 °F 86% 29.68 in 9.0 mi NE 10.4 mph - 0.09 in Rain Light Rain
4:03 PM 60.1 °F 57.0 °F 90% 29.68 in 9.0 mi NE 10.4 mph - 0.00 in Rain Light Rain
4:54 PM 60.1 °F 55.9 °F 86% 29.68 in 10.0 mi North 6.9 mph - 0.00 in Rain Light Rain
5:54 PM 60.1 °F 57.0 °F 90% 29.68 in 10.0 mi NNE 6.9 mph - 0.01 in Rain Light Rain
6:49 PM 60.8 °F 55.4 °F 82% 29.69 in 10.0 mi NNE 6.9 mph - 0.00 in   Overcast
6:50 PM 61.0 °F 57.0 °F 87% 29.69 in 10.0 mi North 6.9 mph - 0.00 in   Overcast
6:58 PM 62.1 °F 57.0 °F 84% 29.69 in 10.0 mi North 6.9 mph - N/A   Overcast
7:54 PM 59.0 °F 55.0 °F 87% 29.69 in 10.0 mi NNE 5.8 mph - N/A   Clear
8:54 PM 55.9 °F 54.0 °F 93% 29.70 in 5.0 mi Calm Calm - N/A   Clear
9:07 PM 55.9 °F 53.1 °F 90% 29.70 in 1.8 mi Calm Calm - N/A   Clear
9:21 PM 55.9 °F 53.1 °F 90% 29.70 in 3.0 mi Calm Calm - N/A   Clear
9:42 PM 55.9 °F 54.0 °F 93% 29.71 in 1.2 mi Calm Calm - N/A   Clear
9:44 PM 55.9 °F 54.0 °F 93% 29.71 in 0.8 mi West 3.5 mph - N/A   Mist
9:51 PM 53.6 °F 53.6 °F 100% 29.71 in 0.2 mi SW 4.6 mph - N/A Fog Fog
9:54 PM 55.0 °F 52.0 °F 89% 29.72 in 0.5 mi SW 3.5 mph - N/A Fog Fog
10:00 PM 55.0 °F 52.0 °F 89% 29.72 in 1.0 mi SSW 3.5 mph - N/A   Mist
10:03 PM 55.0 °F 53.1 °F 93% 29.72 in 2.0 mi SSW 3.5 mph - N/A   Partly Cloudy
10:11 PM 55.9 °F 54.0 °F 93% 29.72 in 5.0 mi Calm Calm - N/A   Partly Cloudy
10:26 PM 57.0 °F 54.0 °F 89% 29.72 in 4.0 mi Calm Calm - N/A   Mostly Cloudy
10:36 PM 55.9 °F 53.1 °F 90% 29.72 in 1.8 mi Calm Calm - N/A   Mostly Cloudy
10:43 PM 55.9 °F 53.1 °F 90% 29.72 in 2.0 mi Calm Calm - N/A   Scattered Clouds
10:54 PM 55.0 °F 53.1 °F 93% 29.72 in 1.2 mi SSW 3.5 mph - N/A   Partly Cloudy
11:01 PM 55.0 °F 53.1 °F 93% 29.72 in 3.0 mi SSW 3.5 mph - N/A   Clear
11:09 PM 55.9 °F 53.1 °F 90% 29.72 in 1.8 mi Calm Calm - N/A   Clear
11:17 PM 55.0 °F 53.1 °F 93% 29.73 in 0.5 mi SW 3.5 mph - N/A Fog Fog
11:25 PM 54.0 °F 52.0 °F 93% 29.73 in 0.8 mi SSW 4.6 mph - N/A   Clear
11:37 PM 55.0 °F 53.1 °F 93% 29.73 in 2.5 mi SSW 4.6 mph - N/A   Clear
11:44 PM 55.0 °F 53.1 °F 93% 29.73 in 3.0 mi SSW 4.6 mph - N/A   Clear
11:54 PM 55.0 °F 53.1 °F 93% 29.73 in 4.0 mi SSW 4.6 mph - N/A   Clear